| time (UTC) | temp C | wind direction | speed KPH | gust KPH | rain 1hr cm | rain 24hr cm | rain mn cm | humidity % | barometer mb |
| 20260902153058 | 31 | 0 | 1.6 | 4.8 | 0.00 | 0.00 | 0.00 | 69 | 1021.7 |
| 20260902151551 | 31 | 200 | 0.0 | 3.2 | 0.00 | 0.00 | 0.00 | 73 | 1021.8 |
| 20260902150058 | 30 | 0 | 1.6 | 6.4 | 0.00 | 0.00 | 0.00 | 76 | 1021.8 |
| 20260902144558 | 30 | 0 | 0.0 | 3.2 | 0.00 | 0.00 | 0.00 | 76 | 1021.6 |
| 20260902143056 | 28 | 0 | 0.0 | 0.0 | 0.00 | 0.00 | 0.00 | 79 | 1021.6 |
| 20260902141555 | 27 | 0 | 0.0 | 0.0 | 0.00 | 0.00 | 0.00 | 83 | 1021.5 |
| 20260902140056 | 26 | 0 | 0.0 | 0.0 | 0.00 | 0.00 | 0.00 | 84 | 1021.4 |
| 20260902134555 | 26 | 0 | 0.0 | 4.8 | 0.00 | 0.00 | 0.00 | 86 | 1021.4 |
| 20260902133056 | 25 | 142 | 0.0 | 0.0 | 0.00 | 0.00 | 0.00 | 89 | 1021.4 |
| 20260902131551 | 25 | 0 | 0.0 | 0.0 | 0.00 | 0.00 | 0.00 | 91 | 1021.5 |
| 20260902124556 | 23 | 0 | 0.0 | 3.2 | 0.00 | 0.00 | 0.00 | 94 | 1021.4 |
| 20260902123059 | 22 | 141 | 3.2 | 6.4 | 0.00 | 0.00 | 0.00 | 96 | 1021.4 |
| 20260902121558 | 22 | 0 | 0.0 | 0.0 | 0.00 | 0.00 | 0.00 | 97 | 1021.3 |
| 20260902120059 | 21 | 0 | 0.0 | 0.0 | 0.00 | 0.00 | 0.00 | 98 | 1021.2 |
| 20260902114555 | 21 | 0 | 0.0 | 0.0 | 0.00 | 0.00 | 0.00 | 97 | 1021.0 |
| 20260902113101 | 21 | 0 | 0.0 | 0.0 | 0.00 | 0.00 | 0.00 | 96 | 1020.8 |
| 20260902111554 | 21 | 0 | 0.0 | 0.0 | 0.00 | 0.00 | 0.00 | 96 | 1020.6 |
| 20260902110058 | 22 | 0 | 0.0 | 0.0 | 0.00 | 0.00 | 0.00 | 96 | 1020.4 |
| 20260902104557 | 22 | 0 | 0.0 | 0.0 | 0.00 | 0.00 | 0.00 | 96 | 1020.3 |
| 20260902103051 | 22 | 0 | 0.0 | 0.0 | 0.00 | 0.00 | 0.00 | 96 | 1020.1 |
| 20260902101555 | 22 | 0 | 0.0 | 0.0 | 0.00 | 0.00 | 0.00 | 95 | 1020.1 |
| 20260902100109 | 22 | 0 | 0.0 | 0.0 | 0.00 | 0.00 | 0.00 | 95 | 1020.0 |
| 20260902094558 | 22 | 0 | 0.0 | 0.0 | 0.00 | 0.00 | 0.00 | 96 | 1019.9 |
| 20260902093057 | 22 | 0 | 0.0 | 0.0 | 0.00 | 0.00 | 0.00 | 96 | 1019.9 |
| 20260902091556 | 22 | 0 | 0.0 | 0.0 | 0.00 | 0.00 | 0.00 | 96 | 1019.7 |
| 20260902090055 | 22 | 0 | 0.0 | 0.0 | 0.00 | 0.00 | 0.00 | 96 | 1019.6 |
| 20260902084603 | 22 | 0 | 0.0 | 0.0 | 0.00 | 0.00 | 0.00 | 96 | 1019.6 |
| 20260902083100 | 22 | 0 | 0.0 | 0.0 | 0.00 | 0.00 | 0.00 | 94 | 1019.5 |
| 20260902081604 | 22 | 0 | 0.0 | 0.0 | 0.00 | 0.00 | 0.00 | 94 | 1019.3 |
| 20260902080100 | 22 | 0 | 0.0 | 0.0 | 0.00 | 0.00 | 0.00 | 93 | 1019.4 |
| 20260902074554 | 23 | 0 | 0.0 | 0.0 | 0.00 | 0.00 | 0.00 | 93 | 1019.4 |
| 20260902073059 | 23 | 0 | 0.0 | 0.0 | 0.00 | 0.00 | 0.00 | 92 | 1019.3 |
| 20260902071551 | 23 | 0 | 0.0 | 0.0 | 0.00 | 0.00 | 0.00 | 92 | 1019.4 |
| 20260902070106 | 23 | 0 | 0.0 | 0.0 | 0.00 | 0.00 | 0.00 | 92 | 1019.5 |
| 20260902064601 | 23 | 0 | 0.0 | 0.0 | 0.00 | 0.00 | 0.00 | 92 | 1019.4 |
| 20260902063054 | 23 | 0 | 0.0 | 0.0 | 0.00 | 0.00 | 0.00 | 91 | 1019.5 |
| 20260902061603 | 23 | 0 | 0.0 | 0.0 | 0.00 | 0.00 | 0.00 | 91 | 1019.5 |
| 20260902060107 | 24 | 0 | 0.0 | 0.0 | 0.00 | 0.00 | 0.00 | 91 | 1019.5 |
| 20260902054557 | 24 | 0 | 0.0 | 0.0 | 0.00 | 0.00 | 0.00 | 91 | 1019.6 |
| 20260902053106 | 24 | 0 | 0.0 | 0.0 | 0.00 | 0.00 | 0.00 | 91 | 1019.6 |
| 20260902051551 | 24 | 0 | 0.0 | 0.0 | 0.00 | 0.00 | 0.00 | 89 | 1019.7 |
| 20260902050104 | 25 | 0 | 0.0 | 0.0 | 0.00 | 0.00 | 0.00 | 87 | 1019.7 |
| 20260902044559 | 25 | 0 | 0.0 | 0.0 | 0.00 | 0.00 | 0.00 | 87 | 1019.6 |
| 20260902043104 | 25 | 0 | 0.0 | 0.0 | 0.00 | 0.00 | 0.00 | 86 | 1019.5 |
| 20260902041555 | 25 | 0 | 0.0 | 0.0 | 0.00 | 0.00 | 0.00 | 85 | 1019.8 |
| 20260902040103 | 26 | 0 | 0.0 | 0.0 | 0.00 | 0.00 | 0.00 | 85 | 1019.7 |
| 20260902034559 | 26 | 0 | 0.0 | 0.0 | 0.00 | 0.00 | 0.00 | 84 | 1019.8 |
| 20260902033102 | 26 | 0 | 0.0 | 0.0 | 0.00 | 0.00 | 0.00 | 84 | 1019.9 |
| 20260902031556 | 26 | 0 | 0.0 | 0.0 | 0.00 | 0.00 | 0.00 | 82 | 1019.8 |
| 20260902030100 | 27 | 0 | 0.0 | 0.0 | 0.00 | 0.00 | 0.00 | 80 | 1019.9 |
| 20260902024556 | 27 | 0 | 0.0 | 0.0 | 0.00 | 0.00 | 0.00 | 79 | 1019.8 |
| 20260902023055 | 27 | 0 | 0.0 | 0.0 | 0.00 | 0.00 | 0.00 | 79 | 1019.7 |
| 20260902021556 | 27 | 0 | 0.0 | 0.0 | 0.00 | 0.00 | 0.00 | 80 | 1019.6 |
| 20260902020055 | 27 | 0 | 0.0 | 1.6 | 0.00 | 0.00 | 0.00 | 79 | 1019.5 |
| 20260902014557 | 27 | 138 | 1.6 | 6.4 | 0.00 | 0.00 | 0.00 | 77 | 1019.5 |
| 20260902013055 | 28 | 0 | 0.0 | 0.0 | 0.00 | 0.00 | 0.00 | 76 | 1019.2 |
| 20260902011557 | 28 | 0 | 0.0 | 0.0 | 0.00 | 0.00 | 0.00 | 74 | 1019.1 |
| 20260902010105 | 29 | 0 | 0.0 | 0.0 | 0.00 | 0.00 | 0.00 | 72 | 1019.0 |
| 20260902004550 | 30 | 0 | 0.0 | 3.2 | 0.00 | 0.00 | 0.00 | 70 | 1018.9 |
| 20260902003050 | 31 | 0 | 0.0 | 0.0 | 0.00 | 0.00 | 0.00 | 64 | 1019.0 |
| 20260902001607 | 32 | 0 | 0.0 | 0.0 | 0.00 | 0.00 | 0.00 | 59 | 1018.9 |
| 20260902000059 | 33 | 0 | 0.0 | 0.0 | 0.00 | 0.00 | 0.00 | 55 | 1019.0 |
| 20260901234558 | 35 | 0 | 0.0 | 0.0 | 0.00 | 0.00 | 0.00 | 54 | 1019.0 |
| 20260901233050 | 35 | 0 | 0.0 | 0.0 | 0.00 | 0.00 | 0.00 | 50 | 1019.0 |
| 20260901231556 | 36 | 0 | 0.0 | 0.0 | 0.00 | 0.00 | 0.00 | 48 | 1019.1 |
| 20260901230058 | 36 | 0 | 0.0 | 0.0 | 0.00 | 0.00 | 0.00 | 48 | 1019.1 |
| 20260901224603 | 36 | 0 | 0.0 | 0.0 | 0.00 | 0.00 | 0.00 | 48 | 1019.1 |
| 20260901223058 | 36 | 0 | 0.0 | 1.6 | 0.00 | 0.00 | 0.00 | 48 | 1019.1 |
| 20260901221603 | 36 | 0 | 0.0 | 4.8 | 0.00 | 0.00 | 0.00 | 50 | 1019.0 |
| 20260901220054 | 36 | 0 | 0.0 | 6.4 | 0.00 | 0.00 | 0.00 | 50 | 1019.1 |
| 20260901214602 | 36 | 0 | 0.0 | 3.2 | 0.00 | 0.00 | 0.00 | 52 | 1019.1 |
| 20260901213102 | 35 | 0 | 0.0 | 4.8 | 0.00 | 0.00 | 0.00 | 50 | 1019.2 |
| 20260901211551 | 36 | 0 | 0.0 | 4.8 | 0.00 | 0.00 | 0.00 | 51 | 1019.2 |
| 20260901210115 | 35 | 0 | 0.0 | 3.2 | 0.00 | 0.00 | 0.00 | 47 | 1019.3 |
| 20260901204552 | 35 | 0 | 0.0 | 4.8 | 0.00 | 0.00 | 0.00 | 49 | 1019.3 |
| 20260901203053 | 35 | 0 | 1.6 | 6.4 | 0.00 | 0.00 | 0.00 | 53 | 1019.5 |
| 20260901201558 | 35 | 28 | 0.0 | 4.8 | 0.00 | 0.00 | 0.00 | 56 | 1019.7 |
| 20260901200105 | 34 | 0 | 1.6 | 4.8 | 0.00 | 0.00 | 0.00 | 56 | 1019.8 |
| 20260901194556 | 33 | 0 | 1.6 | 6.4 | 0.00 | 0.00 | 0.00 | 57 | 1019.9 |
| 20260901193100 | 33 | 0 | 0.0 | 9.7 | 0.00 | 0.00 | 0.00 | 56 | 1019.9 |
| 20260901191555 | 33 | 287 | 4.8 | 9.7 | 0.00 | 0.00 | 0.00 | 55 | 1020.3 |
| 20260901190057 | 33 | 161 | 3.2 | 6.4 | 0.00 | 0.00 | 0.00 | 57 | 1020.5 |
| 20260901184606 | 32 | 0 | 0.0 | 4.8 | 0.00 | 0.00 | 0.00 | 61 | 1020.6 |
| 20260901183106 | 31 | 0 | 0.0 | 0.0 | 0.00 | 0.00 | 0.00 | 63 | 1020.7 |
| 20260901181603 | 32 | 0 | 0.0 | 0.0 | 0.00 | 0.00 | 0.00 | 64 | 1020.8 |
| 20260901180056 | 33 | 0 | 0.0 | 8.0 | 0.00 | 0.00 | 0.00 | 60 | 1020.9 |
| 20260901174556 | 32 | 0 | 0.0 | 11.3 | 0.00 | 0.00 | 0.00 | 64 | 1021.1 |
| 20260901173058 | 32 | 0 | 0.0 | 11.3 | 0.00 | 0.00 | 0.00 | 65 | 1021.3 |
| 20260901171602 | 32 | 0 | 0.0 | 8.0 | 0.00 | 0.00 | 0.00 | 68 | 1021.5 |
| 20260901170058 | 31 | 0 | 1.6 | 8.0 | 0.00 | 0.00 | 0.00 | 64 | 1021.8 |
| 20260901164554 | 32 | 306 | 0.0 | 6.4 | 0.00 | 0.00 | 0.00 | 69 | 1021.9 |
| 20260901163103 | 31 | 0 | 0.0 | 11.3 | 0.00 | 0.00 | 0.00 | 67 | 1022.1 |
| 20260901161619 | 31 | 0 | 3.2 | 11.3 | 0.00 | 0.00 | 0.00 | 67 | 1022.2 |
| 20260901154614 | 30 | 323 | 0.0 | 4.8 | 0.00 | 0.00 | 0.00 | 72 | 1022.2 |